MUOS-3

Last updated on Thu Jul 03 2025 00:02:46 GMT+0000 (Coordinated Universal Time)

1 40374U 15002A 25183.22683745 -.00000124 00000+0 00000+0 0 9998 2 40374 3.8658 41.0229 0054205 177.2430 128.4530 1.00271654 38075
UTC large
Height (km)
Speed (km/s)
/
Latitude / Longitude
Inclination (degrees)
Orbital Period (minutes)
Azimuth
Elevation
Range (km)
Doppler Factor

Next 0 passes for location: London (51.5072 / 0.1276)

Sorry there are no passes over London.